Back to catalog

SL-19 DEB

AliveUNKNOWN
NORAD 23489·DEBRIS·🇷🇺 Russia

Launched Dec 26, 1994 from Baikonur Cosmodrome

Loading…

Next Passes (next 24 hours)

TLE

FreshSource: Space-Track

Epoch: Sep 14, 2026, 14:14 UTC

1 23489U 94085M   26257.59325299  .00000366  00000-0  11213-1 0  9992
2 23489  64.9315 240.4004 0196503 182.6998 289.4957 11.29138533306073

Track SL-19 DEB in real time with AllMySat

Download on the App Store